Year,Month,Day,Hour,Minute,Value (Times are PST for temperature in C)
2015,06,26,00,00,19.50
2015,06,26,00,01,19.40
2015,06,26,00,02,19.40
2015,06,26,00,03,19.50
2015,06,26,00,04,19.50
2015,06,26,00,05,19.50
2015,06,26,00,06,19.50
2015,06,26,00,07,19.50
2015,06,26,00,08,19.50
2015,06,26,00,09,19.50
2015,06,26,00,10,19.50
2015,06,26,00,11,19.50
2015,06,26,00,12,19.50
2015,06,26,00,13,19.50
2015,06,26,00,14,19.50
2015,06,26,00,15,19.50
2015,06,26,00,16,19.50
2015,06,26,00,17,19.50
2015,06,26,00,18,19.50
2015,06,26,00,19,19.50
2015,06,26,00,20,19.50
2015,06,26,00,21,19.50
2015,06,26,00,22,19.40
2015,06,26,00,23,19.40
2015,06,26,00,24,19.40
2015,06,26,00,25,19.40
2015,06,26,00,26,19.40
2015,06,26,00,27,19.40
2015,06,26,00,28,19.40
2015,06,26,00,29,19.40
2015,06,26,00,30,19.40
2015,06,26,00,31,19.40
2015,06,26,00,32,19.40
2015,06,26,00,33,19.40
2015,06,26,00,34,19.40
2015,06,26,00,35,19.40
2015,06,26,00,36,19.40
2015,06,26,00,37,19.40
2015,06,26,00,38,19.50
2015,06,26,00,39,19.50
2015,06,26,00,40,19.50
2015,06,26,00,41,19.50
2015,06,26,00,42,19.60
2015,06,26,00,43,19.60
2015,06,26,00,44,19.60
2015,06,26,00,45,19.60
2015,06,26,00,46,19.60
2015,06,26,00,47,19.60
2015,06,26,00,48,19.60
2015,06,26,00,49,19.60
2015,06,26,00,50,19.60
2015,06,26,00,51,19.60
2015,06,26,00,52,19.60
2015,06,26,00,53,19.60
2015,06,26,00,54,19.50
2015,06,26,00,55,19.50
2015,06,26,00,56,19.60
2015,06,26,00,57,19.50
2015,06,26,00,58,19.50
2015,06,26,00,59,19.50
2015,06,26,01,00,19.50
2015,06,26,01,01,19.50
2015,06,26,01,02,19.50
2015,06,26,01,03,19.50
2015,06,26,01,04,19.50
2015,06,26,01,05,19.50
2015,06,26,01,06,19.50
2015,06,26,01,07,19.50
2015,06,26,01,08,19.50
2015,06,26,01,09,19.50
2015,06,26,01,10,19.50
2015,06,26,01,11,19.50
2015,06,26,01,12,19.40
2015,06,26,01,13,19.40
2015,06,26,01,14,19.40
2015,06,26,01,15,19.40
2015,06,26,01,16,19.40
2015,06,26,01,17,19.40
2015,06,26,01,18,19.40
2015,06,26,01,19,19.40
2015,06,26,01,20,19.30
2015,06,26,01,21,19.30
2015,06,26,01,22,19.30
2015,06,26,01,23,19.30
2015,06,26,01,24,19.30
2015,06,26,01,25,19.20
2015,06,26,01,26,19.20
2015,06,26,01,27,19.20
2015,06,26,01,28,19.20
2015,06,26,01,29,19.20
2015,06,26,01,30,19.20
2015,06,26,01,31,19.20
2015,06,26,01,32,19.20
2015,06,26,01,33,19.10
2015,06,26,01,34,19.10
2015,06,26,01,35,19.10
2015,06,26,01,36,19.10
2015,06,26,01,37,19.10
2015,06,26,01,38,19.10
2015,06,26,01,39,19.10
2015,06,26,01,40,19.10
2015,06,26,01,41,19.10
2015,06,26,01,42,19.00
2015,06,26,01,43,19.00
2015,06,26,01,44,19.00
2015,06,26,01,45,19.00
2015,06,26,01,46,18.90
2015,06,26,01,47,18.90
2015,06,26,01,48,18.90
2015,06,26,01,49,18.90
2015,06,26,01,50,18.90
2015,06,26,01,51,18.90
2015,06,26,01,52,18.90
2015,06,26,01,53,18.90
2015,06,26,01,54,18.90
2015,06,26,01,55,18.80
2015,06,26,01,56,18.80
2015,06,26,01,57,18.80
2015,06,26,01,58,18.80
2015,06,26,01,59,18.80
2015,06,26,02,00,18.80
2015,06,26,02,01,18.70
2015,06,26,02,02,18.70
2015,06,26,02,03,18.70
2015,06,26,02,04,18.70
2015,06,26,02,05,18.70
2015,06,26,02,06,18.60
2015,06,26,02,07,18.60
2015,06,26,02,08,18.60
2015,06,26,02,09,18.60
2015,06,26,02,10,18.50
2015,06,26,02,11,18.50
2015,06,26,02,12,18.50
2015,06,26,02,13,18.50
2015,06,26,02,14,18.50
2015,06,26,02,15,18.50
2015,06,26,02,16,18.50
2015,06,26,02,17,18.50
2015,06,26,02,18,18.40
2015,06,26,02,19,18.40
2015,06,26,02,20,18.40
2015,06,26,02,21,18.40
2015,06,26,02,22,18.40
2015,06,26,02,23,18.40
2015,06,26,02,24,18.40
2015,06,26,02,25,18.40
2015,06,26,02,26,18.40
2015,06,26,02,27,18.40
2015,06,26,02,28,18.40
2015,06,26,02,29,18.40
2015,06,26,02,30,18.40
2015,06,26,02,31,18.30
2015,06,26,02,32,18.30
2015,06,26,02,33,18.30
2015,06,26,02,34,18.30
2015,06,26,02,35,18.30
2015,06,26,02,36,18.30
2015,06,26,02,37,18.30
2015,06,26,02,38,18.30
2015,06,26,02,39,18.30
2015,06,26,02,40,18.30
2015,06,26,02,41,18.30
2015,06,26,02,42,18.30
2015,06,26,02,43,18.30
2015,06,26,02,44,18.30
2015,06,26,02,45,18.30
2015,06,26,02,46,18.20
2015,06,26,02,47,18.20
2015,06,26,02,48,18.20
2015,06,26,02,49,18.20
2015,06,26,02,50,18.20
2015,06,26,02,51,18.20
2015,06,26,02,52,18.20
2015,06,26,02,53,18.20
2015,06,26,02,54,18.20
2015,06,26,02,55,18.20
2015,06,26,02,56,18.20
2015,06,26,02,57,18.20
2015,06,26,02,58,18.20
2015,06,26,02,59,18.10
2015,06,26,03,00,18.10
2015,06,26,03,01,18.10
2015,06,26,03,02,18.10
2015,06,26,03,03,18.10
2015,06,26,03,04,18.10
2015,06,26,03,05,18.10
2015,06,26,03,06,18.10
2015,06,26,03,07,18.10
2015,06,26,03,08,18.10
2015,06,26,03,09,18.00
2015,06,26,03,10,18.00
2015,06,26,03,11,18.00
2015,06,26,03,12,18.00
2015,06,26,03,13,18.00
2015,06,26,03,14,18.00
2015,06,26,03,15,18.00
2015,06,26,03,16,18.00
2015,06,26,03,17,18.00
2015,06,26,03,18,18.00
2015,06,26,03,19,18.00
2015,06,26,03,20,18.00
2015,06,26,03,21,18.00
2015,06,26,03,22,18.00
2015,06,26,03,23,18.00
2015,06,26,03,24,18.00
2015,06,26,03,25,18.00
2015,06,26,03,26,18.00
2015,06,26,03,27,18.00
2015,06,26,03,28,18.00
2015,06,26,03,29,18.00
2015,06,26,03,30,18.00
2015,06,26,03,31,18.00
2015,06,26,03,32,18.00
2015,06,26,03,33,18.00
2015,06,26,03,34,18.00
2015,06,26,03,35,18.00
2015,06,26,03,36,17.90
2015,06,26,03,37,17.90
2015,06,26,03,38,17.90
2015,06,26,03,39,17.90
2015,06,26,03,40,17.90
2015,06,26,03,41,17.90
2015,06,26,03,42,17.90
2015,06,26,03,43,17.90
2015,06,26,03,44,17.90
2015,06,26,03,45,17.90
2015,06,26,03,46,17.90
2015,06,26,03,47,17.90
2015,06,26,03,48,17.90
2015,06,26,03,49,17.80
2015,06,26,03,50,17.80
2015,06,26,03,51,17.80
2015,06,26,03,52,17.80
2015,06,26,03,53,17.80
2015,06,26,03,54,17.80
2015,06,26,03,55,17.80
2015,06,26,03,56,17.80
2015,06,26,03,57,17.80
2015,06,26,03,58,17.80
2015,06,26,03,59,17.80
2015,06,26,04,00,17.80
2015,06,26,04,01,17.80
2015,06,26,04,02,17.80
2015,06,26,04,03,17.80
2015,06,26,04,04,17.80
2015,06,26,04,05,17.80
2015,06,26,04,06,17.80
2015,06,26,04,07,17.80
2015,06,26,04,08,17.80
2015,06,26,04,09,17.80
2015,06,26,04,10,17.80
2015,06,26,04,11,17.70
2015,06,26,04,12,17.80
2015,06,26,04,13,17.70
2015,06,26,04,14,17.70
2015,06,26,04,15,17.70
2015,06,26,04,16,17.70
2015,06,26,04,17,17.70
2015,06,26,04,18,17.70
2015,06,26,04,19,17.70
2015,06,26,04,20,17.70
2015,06,26,04,21,17.70
2015,06,26,04,22,17.70
2015,06,26,04,23,17.70
2015,06,26,04,24,17.70
2015,06,26,04,25,17.70
2015,06,26,04,26,17.70
2015,06,26,04,27,17.70
2015,06,26,04,28,17.70
2015,06,26,04,29,17.70
2015,06,26,04,30,17.70
2015,06,26,04,31,17.70
2015,06,26,04,32,17.70
2015,06,26,04,33,17.70
2015,06,26,04,34,17.70
2015,06,26,04,35,17.60
2015,06,26,04,36,17.60
2015,06,26,04,37,17.60
2015,06,26,04,38,17.60
2015,06,26,04,39,17.60
2015,06,26,04,40,17.60
2015,06,26,04,41,17.60
2015,06,26,04,42,17.60
2015,06,26,04,43,17.50
2015,06,26,04,44,17.50
2015,06,26,04,45,17.50
2015,06,26,04,46,17.50
2015,06,26,04,47,17.50
2015,06,26,04,48,17.50
2015,06,26,04,49,17.50
2015,06,26,04,50,17.50
2015,06,26,04,51,17.50
2015,06,26,04,52,17.50
2015,06,26,04,53,17.40
2015,06,26,04,54,17.40
2015,06,26,04,55,17.40
2015,06,26,04,56,17.40
2015,06,26,04,57,17.40
2015,06,26,04,58,17.40
2015,06,26,04,59,17.40
2015,06,26,05,00,17.30
2015,06,26,05,01,17.30
2015,06,26,05,02,17.30
2015,06,26,05,03,17.30
2015,06,26,05,04,17.30
2015,06,26,05,05,17.30
2015,06,26,05,06,17.30
2015,06,26,05,07,17.30
2015,06,26,05,08,17.30
2015,06,26,05,09,17.30
2015,06,26,05,10,17.30
2015,06,26,05,11,17.30
2015,06,26,05,12,17.20
2015,06,26,05,13,17.20
2015,06,26,05,14,17.20
2015,06,26,05,15,17.20
2015,06,26,05,16,17.20
2015,06,26,05,17,17.20
2015,06,26,05,18,17.20
2015,06,26,05,19,17.20
2015,06,26,05,20,17.20
2015,06,26,05,21,17.20
2015,06,26,05,22,17.20
2015,06,26,05,23,17.10
2015,06,26,05,24,17.10
2015,06,26,05,25,17.20
2015,06,26,05,26,17.10
2015,06,26,05,27,17.10
2015,06,26,05,28,17.10
2015,06,26,05,29,17.10
2015,06,26,05,30,17.10
2015,06,26,05,31,17.10
2015,06,26,05,32,17.10
2015,06,26,05,33,17.10
2015,06,26,05,34,17.10
2015,06,26,05,35,17.10
2015,06,26,05,36,17.10
2015,06,26,05,37,17.10
2015,06,26,05,38,17.10
2015,06,26,05,39,17.10
2015,06,26,05,40,17.10
2015,06,26,05,41,17.10
2015,06,26,05,42,17.10
2015,06,26,05,43,17.10
2015,06,26,05,44,17.10
2015,06,26,05,45,17.10
2015,06,26,05,46,17.10
2015,06,26,05,47,17.00
2015,06,26,05,48,17.00
2015,06,26,05,49,17.00
2015,06,26,05,50,17.00
2015,06,26,05,51,17.00
2015,06,26,05,52,17.00
2015,06,26,05,53,17.00
2015,06,26,05,54,17.00
2015,06,26,05,55,17.00
2015,06,26,05,56,17.00
2015,06,26,05,57,17.00
2015,06,26,05,58,17.00
2015,06,26,05,59,17.00
2015,06,26,06,00,17.00
2015,06,26,06,01,17.00
2015,06,26,06,02,17.00
2015,06,26,06,03,17.00
2015,06,26,06,04,17.00
2015,06,26,06,05,17.00
2015,06,26,06,06,17.00
2015,06,26,06,07,17.00
2015,06,26,06,08,17.00
2015,06,26,06,09,17.10
2015,06,26,06,10,17.10
2015,06,26,06,11,17.10
2015,06,26,06,12,17.10
2015,06,26,06,13,17.10
2015,06,26,06,14,17.10
2015,06,26,06,15,17.10
2015,06,26,06,16,17.10
2015,06,26,06,17,17.10
2015,06,26,06,18,17.20
2015,06,26,06,19,17.20
2015,06,26,06,20,17.20
2015,06,26,06,21,17.20
2015,06,26,06,22,17.20
2015,06,26,06,23,17.20
2015,06,26,06,24,17.20
2015,06,26,06,25,17.20
2015,06,26,06,26,17.20
2015,06,26,06,27,17.20
2015,06,26,06,28,17.20
2015,06,26,06,29,17.20
2015,06,26,06,30,17.20
2015,06,26,06,31,17.20
2015,06,26,06,32,17.20
2015,06,26,06,33,17.20
2015,06,26,06,34,17.30
2015,06,26,06,35,17.30
2015,06,26,06,36,17.30
2015,06,26,06,37,17.30
2015,06,26,06,38,17.30
2015,06,26,06,39,17.30
2015,06,26,06,40,17.30
2015,06,26,06,41,17.30
2015,06,26,06,42,17.30
2015,06,26,06,43,17.30
2015,06,26,06,44,17.30
2015,06,26,06,45,17.30
2015,06,26,06,46,17.40
2015,06,26,06,47,17.40
2015,06,26,06,48,17.40
2015,06,26,06,49,17.40
2015,06,26,06,50,17.40
2015,06,26,06,51,17.40
2015,06,26,06,52,17.40
2015,06,26,06,53,17.40
2015,06,26,06,54,17.40
2015,06,26,06,55,17.50
2015,06,26,06,56,17.50
2015,06,26,06,57,17.50
2015,06,26,06,58,17.60
2015,06,26,06,59,17.60
2015,06,26,07,00,17.60
2015,06,26,07,01,17.60
2015,06,26,07,02,17.60
2015,06,26,07,03,17.60
2015,06,26,07,04,17.60
2015,06,26,07,05,17.60
2015,06,26,07,06,17.60
2015,06,26,07,07,17.60
2015,06,26,07,08,17.60
2015,06,26,07,09,17.60
2015,06,26,07,10,17.70
2015,06,26,07,11,17.70
2015,06,26,07,12,17.70
2015,06,26,07,13,17.70
2015,06,26,07,14,17.70
2015,06,26,07,15,17.70
2015,06,26,07,16,17.70
2015,06,26,07,17,17.70
2015,06,26,07,18,17.70
2015,06,26,07,19,17.70
2015,06,26,07,20,17.70
2015,06,26,07,21,17.70
2015,06,26,07,22,17.70
2015,06,26,07,23,17.70
2015,06,26,07,24,17.70
2015,06,26,07,25,17.70
2015,06,26,07,26,17.70
2015,06,26,07,27,17.70
2015,06,26,07,28,17.70
2015,06,26,07,29,17.70
2015,06,26,07,30,17.70
2015,06,26,07,31,17.70
2015,06,26,07,32,17.70
2015,06,26,07,33,17.70
2015,06,26,07,34,17.80
2015,06,26,07,35,17.80
2015,06,26,07,36,17.80
2015,06,26,07,37,17.80
2015,06,26,07,38,17.80
2015,06,26,07,39,17.80
2015,06,26,07,40,17.80
2015,06,26,07,41,17.80
2015,06,26,07,42,17.80
2015,06,26,07,43,17.80
2015,06,26,07,44,17.80
2015,06,26,07,45,17.80
2015,06,26,07,46,17.80
2015,06,26,07,47,17.80
2015,06,26,07,48,17.90
2015,06,26,07,49,17.80
2015,06,26,07,50,17.80
2015,06,26,07,51,17.80
2015,06,26,07,52,17.80
2015,06,26,07,53,17.90
2015,06,26,07,54,17.90
2015,06,26,07,55,17.90
2015,06,26,07,56,17.90
2015,06,26,07,57,18.00
2015,06,26,07,58,18.00
2015,06,26,07,59,18.10
2015,06,26,08,00,18.10
2015,06,26,08,01,18.20
2015,06,26,08,02,18.20
2015,06,26,08,03,18.20
2015,06,26,08,04,18.30
2015,06,26,08,05,18.30
2015,06,26,08,06,18.30
2015,06,26,08,07,18.30
2015,06,26,08,08,18.40
2015,06,26,08,09,18.40
2015,06,26,08,10,18.40
2015,06,26,08,11,18.40
2015,06,26,08,12,18.50
2015,06,26,08,13,18.50
2015,06,26,08,14,18.50
2015,06,26,08,15,18.60
2015,06,26,08,16,18.60
2015,06,26,08,17,18.60
2015,06,26,08,18,18.60
2015,06,26,08,19,18.60
2015,06,26,08,20,18.60
2015,06,26,08,21,18.60
2015,06,26,08,22,18.70
2015,06,26,08,23,18.70
2015,06,26,08,24,18.70
2015,06,26,08,25,18.70
2015,06,26,08,26,18.70
2015,06,26,08,27,18.70
2015,06,26,08,28,18.70
2015,06,26,08,29,18.80
2015,06,26,08,30,18.80
2015,06,26,08,31,18.80
2015,06,26,08,32,18.90
2015,06,26,08,33,18.90
2015,06,26,08,34,18.90
2015,06,26,08,35,18.90
2015,06,26,08,36,19.00
2015,06,26,08,37,19.00
2015,06,26,08,38,19.10
2015,06,26,08,39,19.10
2015,06,26,08,40,19.20
2015,06,26,08,41,19.30
2015,06,26,08,42,19.30
2015,06,26,08,43,19.30
2015,06,26,08,44,19.30
2015,06,26,08,45,19.30
2015,06,26,08,46,19.30
2015,06,26,08,47,19.30
2015,06,26,08,48,19.30
2015,06,26,08,49,19.30
2015,06,26,08,50,19.30
2015,06,26,08,51,19.40
2015,06,26,08,52,19.40
2015,06,26,08,53,19.40
2015,06,26,08,54,19.40
2015,06,26,08,55,19.50
2015,06,26,08,56,19.50
2015,06,26,08,57,19.60
2015,06,26,08,58,19.60
2015,06,26,08,59,19.60
2015,06,26,09,00,19.60
2015,06,26,09,01,19.60
2015,06,26,09,02,19.70
2015,06,26,09,03,19.70
2015,06,26,09,04,19.70
2015,06,26,09,05,19.70
2015,06,26,09,06,19.70
2015,06,26,09,07,19.70
2015,06,26,09,08,19.70
2015,06,26,09,09,19.70
2015,06,26,09,10,19.70
2015,06,26,09,11,19.80
2015,06,26,09,12,19.70
2015,06,26,09,13,19.70
2015,06,26,09,14,19.70
2015,06,26,09,15,19.70
2015,06,26,09,16,19.70
2015,06,26,09,17,19.70
2015,06,26,09,18,19.60
2015,06,26,09,19,19.60
2015,06,26,09,20,19.60
2015,06,26,09,21,19.60
2015,06,26,09,22,19.60
2015,06,26,09,23,19.50
2015,06,26,09,24,19.50
2015,06,26,09,25,19.50
2015,06,26,09,26,19.50
2015,06,26,09,27,19.50
2015,06,26,09,28,19.50
2015,06,26,09,29,19.50
2015,06,26,09,30,19.60
2015,06,26,09,31,19.60
2015,06,26,09,32,19.60
2015,06,26,09,33,19.60
2015,06,26,09,34,19.60
2015,06,26,09,35,19.60
2015,06,26,09,36,19.60
2015,06,26,09,37,19.60
2015,06,26,09,38,19.60
2015,06,26,09,39,19.70
2015,06,26,09,40,19.70
2015,06,26,09,41,19.70
2015,06,26,09,42,19.70
2015,06,26,09,43,19.70
2015,06,26,09,44,19.70
2015,06,26,09,45,19.70
2015,06,26,09,46,19.80
2015,06,26,09,47,19.80
2015,06,26,09,48,19.90
2015,06,26,09,49,20.00
2015,06,26,09,50,20.10
2015,06,26,09,51,20.20
2015,06,26,09,52,20.30
2015,06,26,09,53,20.30
2015,06,26,09,54,20.30
2015,06,26,09,55,20.40
2015,06,26,09,56,20.40
2015,06,26,09,57,20.50
2015,06,26,09,58,20.60
2015,06,26,09,59,20.70
2015,06,26,10,00,20.70
2015,06,26,10,01,20.70
2015,06,26,10,02,20.70
2015,06,26,10,03,20.80
2015,06,26,10,04,20.90
2015,06,26,10,05,21.00
2015,06,26,10,06,21.00
2015,06,26,10,07,21.00
2015,06,26,10,08,21.00
2015,06,26,10,09,20.90
2015,06,26,10,10,20.90
2015,06,26,10,11,21.00
2015,06,26,10,12,21.00
2015,06,26,10,13,21.00
2015,06,26,10,14,21.10
2015,06,26,10,15,21.10
2015,06,26,10,16,21.10
2015,06,26,10,17,21.10
2015,06,26,10,18,21.10
2015,06,26,10,19,21.10
2015,06,26,10,20,21.10
2015,06,26,10,21,21.20
2015,06,26,10,22,21.20
2015,06,26,10,23,21.30
2015,06,26,10,24,21.40
2015,06,26,10,25,21.40
2015,06,26,10,26,21.40
2015,06,26,10,27,21.40
2015,06,26,10,28,21.30
2015,06,26,10,29,21.30
2015,06,26,10,30,21.30
2015,06,26,10,31,21.20
2015,06,26,10,32,21.20
2015,06,26,10,33,21.20
2015,06,26,10,34,21.20
2015,06,26,10,35,21.20
2015,06,26,10,36,21.20
2015,06,26,10,37,21.20
2015,06,26,10,38,21.30
2015,06,26,10,39,21.30
2015,06,26,10,40,21.40
2015,06,26,10,41,21.40
2015,06,26,10,42,21.40
2015,06,26,10,43,21.40
2015,06,26,10,44,21.30
2015,06,26,10,45,21.30
2015,06,26,10,46,21.30
2015,06,26,10,47,21.30
2015,06,26,10,48,21.30
2015,06,26,10,49,21.30
2015,06,26,10,50,21.20
2015,06,26,10,51,21.20
2015,06,26,10,52,21.20
2015,06,26,10,53,21.20
2015,06,26,10,54,21.30
2015,06,26,10,55,21.40
2015,06,26,10,56,21.50
2015,06,26,10,57,21.50
2015,06,26,10,58,21.60
2015,06,26,10,59,21.70
2015,06,26,11,00,21.70
2015,06,26,11,01,21.80
2015,06,26,11,02,21.90
2015,06,26,11,03,21.90
2015,06,26,11,04,21.90
2015,06,26,11,05,21.90
2015,06,26,11,06,21.90
2015,06,26,11,07,21.90
2015,06,26,11,08,21.90
2015,06,26,11,09,21.80
2015,06,26,11,10,21.80
2015,06,26,11,11,21.80
2015,06,26,11,12,21.80
2015,06,26,11,13,21.80
2015,06,26,11,14,21.80
2015,06,26,11,15,21.90
2015,06,26,11,16,22.00
2015,06,26,11,17,22.10
2015,06,26,11,18,22.20
2015,06,26,11,19,22.30
2015,06,26,11,20,22.40
2015,06,26,11,21,22.50
2015,06,26,11,22,22.50
2015,06,26,11,23,22.60
2015,06,26,11,24,22.60
2015,06,26,11,25,22.60
2015,06,26,11,26,22.60
2015,06,26,11,27,22.60
2015,06,26,11,28,22.60
2015,06,26,11,29,22.50
2015,06,26,11,30,22.50
2015,06,26,11,31,22.50
2015,06,26,11,32,22.50
2015,06,26,11,33,22.60
2015,06,26,11,34,22.70
2015,06,26,11,35,22.70
2015,06,26,11,36,22.80
2015,06,26,11,37,22.80
2015,06,26,11,38,22.90
2015,06,26,11,39,22.90
2015,06,26,11,40,23.00
2015,06,26,11,41,23.10
2015,06,26,11,42,23.20
2015,06,26,11,43,23.30
2015,06,26,11,44,23.40
2015,06,26,11,45,23.40
2015,06,26,11,46,23.40
2015,06,26,11,47,23.40
2015,06,26,11,48,23.40
2015,06,26,11,49,23.50
2015,06,26,11,50,23.50
2015,06,26,11,51,23.40
2015,06,26,11,52,23.40
2015,06,26,11,53,23.40
2015,06,26,11,54,23.40
2015,06,26,11,55,23.50
2015,06,26,11,56,23.50
2015,06,26,11,57,23.60
2015,06,26,11,58,23.60
2015,06,26,11,59,23.60
2015,06,26,12,00,23.70
2015,06,26,12,01,23.60
2015,06,26,12,02,23.50
2015,06,26,12,03,23.40
2015,06,26,12,04,23.20
2015,06,26,12,05,23.10
2015,06,26,12,06,23.00
2015,06,26,12,07,23.10
2015,06,26,12,08,23.10
2015,06,26,12,09,23.20
2015,06,26,12,10,23.20
2015,06,26,12,11,23.10
2015,06,26,12,12,23.00
2015,06,26,12,13,22.90
2015,06,26,12,14,22.90
2015,06,26,12,15,22.90
2015,06,26,12,16,22.80
2015,06,26,12,17,22.90
2015,06,26,12,18,23.00
2015,06,26,12,19,23.00
2015,06,26,12,20,23.10
2015,06,26,12,21,23.20
2015,06,26,12,22,23.20
2015,06,26,12,23,23.30
2015,06,26,12,24,23.40
2015,06,26,12,25,23.50
2015,06,26,12,26,23.50
2015,06,26,12,27,23.60
2015,06,26,12,28,23.60
2015,06,26,12,29,23.70
2015,06,26,12,30,23.70
2015,06,26,12,31,23.70
2015,06,26,12,32,23.70
2015,06,26,12,33,23.70
2015,06,26,12,34,23.70
2015,06,26,12,35,23.70
2015,06,26,12,36,23.70
2015,06,26,12,37,23.70
2015,06,26,12,38,23.70
2015,06,26,12,39,23.70
2015,06,26,12,40,23.80
2015,06,26,12,41,23.80
2015,06,26,12,42,23.80
2015,06,26,12,43,23.80
2015,06,26,12,44,23.80
2015,06,26,12,45,23.80
2015,06,26,12,46,23.80
2015,06,26,12,47,23.90
2015,06,26,12,48,23.90
2015,06,26,12,49,23.90
2015,06,26,12,50,24.00
2015,06,26,12,51,24.00
2015,06,26,12,52,24.10
2015,06,26,12,53,24.10
2015,06,26,12,54,24.10
2015,06,26,12,55,24.10
2015,06,26,12,56,24.10
2015,06,26,12,57,24.10
2015,06,26,12,58,24.10
2015,06,26,12,59,24.10
2015,06,26,13,00,24.30
2015,06,26,13,01,24.40
2015,06,26,13,02,24.50
2015,06,26,13,03,24.50
2015,06,26,13,04,24.50
2015,06,26,13,05,24.40
2015,06,26,13,06,24.40
2015,06,26,13,07,24.50
2015,06,26,13,08,24.50
2015,06,26,13,09,24.60
2015,06,26,13,10,24.70
2015,06,26,13,11,24.70
2015,06,26,13,12,24.70
2015,06,26,13,13,24.80
2015,06,26,13,14,24.70
2015,06,26,13,15,24.70
2015,06,26,13,16,24.70
2015,06,26,13,17,24.60
2015,06,26,13,18,24.70
2015,06,26,13,19,24.80
2015,06,26,13,20,24.90
2015,06,26,13,21,24.90
2015,06,26,13,22,24.90
2015,06,26,13,23,25.00
2015,06,26,13,24,25.20
2015,06,26,13,25,25.30
2015,06,26,13,26,25.40
2015,06,26,13,27,25.40
2015,06,26,13,28,25.40
2015,06,26,13,29,25.30
2015,06,26,13,30,25.20
2015,06,26,13,31,25.20
2015,06,26,13,32,25.30
2015,06,26,13,33,25.30
2015,06,26,13,34,25.30
2015,06,26,13,35,25.30
2015,06,26,13,36,25.20
2015,06,26,13,37,25.10
2015,06,26,13,38,25.00
2015,06,26,13,39,25.00
2015,06,26,13,40,25.00
2015,06,26,13,41,25.00
2015,06,26,13,42,25.00
2015,06,26,13,43,25.10
2015,06,26,13,44,25.10
2015,06,26,13,45,25.10
2015,06,26,13,46,25.20
2015,06,26,13,47,25.10
2015,06,26,13,48,25.10
2015,06,26,13,49,25.10
2015,06,26,13,50,25.10
2015,06,26,13,51,25.20
2015,06,26,13,52,25.20
2015,06,26,13,53,25.30
2015,06,26,13,54,25.30
2015,06,26,13,55,25.30
2015,06,26,13,56,25.30
2015,06,26,13,57,25.40
2015,06,26,13,58,25.40
2015,06,26,13,59,25.40
2015,06,26,14,00,25.50
2015,06,26,14,01,25.50
2015,06,26,14,02,25.50
2015,06,26,14,03,25.50
2015,06,26,14,04,25.50
2015,06,26,14,05,25.40
2015,06,26,14,06,25.40
2015,06,26,14,07,25.40
2015,06,26,14,08,25.40
2015,06,26,14,09,25.50
2015,06,26,14,10,25.60
2015,06,26,14,11,25.70
2015,06,26,14,12,25.80
2015,06,26,14,13,25.80
2015,06,26,14,14,25.80
2015,06,26,14,15,25.80
2015,06,26,14,16,25.70
2015,06,26,14,17,25.50
2015,06,26,14,18,25.50
2015,06,26,14,19,25.50
2015,06,26,14,20,25.50
2015,06,26,14,21,25.60
2015,06,26,14,22,25.60
2015,06,26,14,23,25.70
2015,06,26,14,24,25.70
2015,06,26,14,25,25.70
2015,06,26,14,26,25.70
2015,06,26,14,27,25.70
2015,06,26,14,28,25.70
2015,06,26,14,29,25.70
2015,06,26,14,30,25.70
2015,06,26,14,31,25.80
2015,06,26,14,32,25.80
2015,06,26,14,33,25.90
2015,06,26,14,34,25.90
2015,06,26,14,35,25.90
2015,06,26,14,36,26.00
2015,06,26,14,37,26.00
2015,06,26,14,38,26.00
2015,06,26,14,39,26.00
2015,06,26,14,40,26.10
2015,06,26,14,41,26.20
2015,06,26,14,42,26.30
2015,06,26,14,43,26.40
2015,06,26,14,44,26.40
2015,06,26,14,45,26.50
2015,06,26,14,46,26.50
2015,06,26,14,47,26.60
2015,06,26,14,48,26.50
2015,06,26,14,49,26.40
2015,06,26,14,50,26.40
2015,06,26,14,51,26.40
2015,06,26,14,52,26.40
2015,06,26,14,53,26.40
2015,06,26,14,54,26.40
2015,06,26,14,55,26.50
2015,06,26,14,56,26.60
2015,06,26,14,57,26.60
2015,06,26,14,58,26.70
2015,06,26,14,59,26.70
2015,06,26,15,00,26.80
2015,06,26,15,01,26.80
2015,06,26,15,02,26.80
2015,06,26,15,03,26.80
2015,06,26,15,04,26.70
2015,06,26,15,05,26.70
2015,06,26,15,06,26.70
2015,06,26,15,07,26.80
2015,06,26,15,08,26.90
2015,06,26,15,09,27.00
2015,06,26,15,10,27.10
2015,06,26,15,11,27.20
2015,06,26,15,12,27.30
2015,06,26,15,13,27.30
2015,06,26,15,14,27.30
2015,06,26,15,15,27.30
2015,06,26,15,16,27.30
2015,06,26,15,17,27.30
2015,06,26,15,18,27.40
2015,06,26,15,19,27.40
2015,06,26,15,20,27.50
2015,06,26,15,21,27.40
2015,06,26,15,22,27.50
2015,06,26,15,23,27.40
2015,06,26,15,24,27.40
2015,06,26,15,25,27.40
2015,06,26,15,26,27.40
2015,06,26,15,27,27.50
2015,06,26,15,28,27.60
2015,06,26,15,29,27.60
2015,06,26,15,30,27.70
2015,06,26,15,31,27.80
2015,06,26,15,32,27.90
2015,06,26,15,33,27.90
2015,06,26,15,34,28.00
2015,06,26,15,35,28.00
2015,06,26,15,36,28.10
2015,06,26,15,37,28.10
2015,06,26,15,38,28.20
2015,06,26,15,39,28.30
2015,06,26,15,40,28.30
2015,06,26,15,41,28.30
2015,06,26,15,42,28.30
2015,06,26,15,43,28.20
2015,06,26,15,44,28.20
2015,06,26,15,45,28.10
2015,06,26,15,46,28.10
2015,06,26,15,47,28.00
2015,06,26,15,48,28.00
2015,06,26,15,49,27.90
2015,06,26,15,50,28.00
2015,06,26,15,51,28.00
2015,06,26,15,52,28.10
2015,06,26,15,53,28.20
2015,06,26,15,54,28.20
2015,06,26,15,55,28.20
2015,06,26,15,56,28.20
2015,06,26,15,57,28.20
2015,06,26,15,58,28.20
2015,06,26,15,59,28.20
2015,06,26,16,00,28.30
2015,06,26,16,01,28.30
2015,06,26,16,02,28.30
2015,06,26,16,03,28.30
2015,06,26,16,04,28.30
2015,06,26,16,05,28.20
2015,06,26,16,06,28.20
2015,06,26,16,07,28.20
2015,06,26,16,08,28.20
2015,06,26,16,09,28.20
2015,06,26,16,10,28.30
2015,06,26,16,11,28.30
2015,06,26,16,12,28.40
2015,06,26,16,13,28.30
2015,06,26,16,14,28.30
2015,06,26,16,15,28.30
2015,06,26,16,16,28.40
2015,06,26,16,17,28.40
2015,06,26,16,18,28.40
2015,06,26,16,19,28.40
2015,06,26,16,20,28.40
2015,06,26,16,21,28.40
2015,06,26,16,22,28.40
2015,06,26,16,23,28.40
2015,06,26,16,24,28.50
2015,06,26,16,25,28.50
2015,06,26,16,26,28.50
2015,06,26,16,27,28.50
2015,06,26,16,28,28.60
2015,06,26,16,29,28.60
2015,06,26,16,30,28.60
2015,06,26,16,31,28.60
2015,06,26,16,32,28.60
2015,06,26,16,33,28.60
2015,06,26,16,34,28.60
2015,06,26,16,35,28.60
2015,06,26,16,36,28.50
2015,06,26,16,37,28.60
2015,06,26,16,38,28.60
2015,06,26,16,39,28.60
2015,06,26,16,40,28.60
2015,06,26,16,41,28.60
2015,06,26,16,42,28.60
2015,06,26,16,43,28.60
2015,06,26,16,44,28.60
2015,06,26,16,45,28.60
2015,06,26,16,46,28.60
2015,06,26,16,47,28.60
2015,06,26,16,48,28.60
2015,06,26,16,49,28.60
2015,06,26,16,50,28.60
2015,06,26,16,51,28.60
2015,06,26,16,52,28.50
2015,06,26,16,53,28.50
2015,06,26,16,54,28.40
2015,06,26,16,55,28.40
2015,06,26,16,56,28.50
2015,06,26,16,57,28.40
2015,06,26,16,58,28.40
2015,06,26,16,59,28.40
2015,06,26,17,00,28.30
2015,06,26,17,01,28.30
2015,06,26,17,02,28.20
2015,06,26,17,03,28.20
2015,06,26,17,04,28.20
2015,06,26,17,05,28.20
2015,06,26,17,06,28.20
2015,06,26,17,07,28.20
2015,06,26,17,08,28.20
2015,06,26,17,09,28.20
2015,06,26,17,10,28.10
2015,06,26,17,11,28.10
2015,06,26,17,12,28.20
2015,06,26,17,13,28.20
2015,06,26,17,14,28.20
2015,06,26,17,15,28.20
2015,06,26,17,16,28.20
2015,06,26,17,17,28.20
2015,06,26,17,18,28.30
2015,06,26,17,19,28.30